Sunday, December 16, 2018, 10:25 AM EST
Back to Local

KIAG, Niagara Falls International Airport

Location: Niagara Falls, NY, United States Lat: 43.117
Local Time: 10:25 AM EST (15:25 GMT) Lon: -78.933
Time Zone: US/Eastern Elev: 583 ft

Show me the last for .
Show Coded

Time T Td Feel RH Dir Speed Gust Alt SLP Vis Weather Sky Remarks
2018-12-16 09:53 36 31 29 81 60° 9 - 30.03 30.07 10 SCT090 OVC110 None
2018-12-16 08:53 35 30 29 81 60° 8 - 30.03 30.07 9 BKN120 None
2018-12-16 07:53 34 31 27 88 50° 9 - 30.04 30.08 10 CLR None
2018-12-16 06:53 34 32 27 92 40° 8 - 30.04 30.09 8 CLR 6-hr Min Temp (7am): 33.1°F
6-hr Max Temp (7am): 34.0°F
2018-12-16 05:53 34 32 29 92 50° 6 - 30.06 30.10 7 CLR None
2018-12-16 04:53 34 32 28 92 30° 7 - 30.06 30.10 8 CLR None
2018-12-16 03:53 34 31 27 88 60° 8 - 30.06 30.10 8 CLR None
2018-12-16 03:40 34 31 27 88 60° 8 - 30.06 - 8 SCT009 None
2018-12-16 03:06 34 31 27 88 70° 9 - 30.09 - 9 BKN010 None
2018-12-16 02:53 34 31 27 88 80° 8 - 30.09 30.13 8 FEW009 None
2018-12-16 01:53 34 31 27 88 80° 9 - 30.11 30.15 9 CLR None
2018-12-16 00:53 33 30 25 88 80° 9 - 30.13 30.17 10 CLR 6-hr Min Temp (1am): 33.1°F
6-hr Max Temp (1am): 35.1°F
2018-12-15 23:53 34 30 27 85 60° 9 - 30.15 30.19 10 CLR 24-hr Min Temp (12am): 33.1°F
24-hr Max Temp (12am): 39.0°F
2018-12-15 22:53 34 30 27 85 70° 9 - 30.19 30.23 10 CLR None
2018-12-15 21:53 34 30 27 85 80° 8 - 30.22 30.26 10 CLR None
2018-12-15 20:53 34 31 25 88 50° 12 - 30.20 30.24 10 CLR None
2018-12-15 19:53 34 31 27 88 60° 9 - 30.21 30.25 8 CLR None
2018-12-15 18:53 35 31 28 84 60° 9 - 30.20 30.24 9 CLR 6-hr Min Temp (7pm): 35.1°F
6-hr Max Temp (7pm): 37.9°F
2018-12-15 17:53 35 32 29 88 60° 8 - 30.20 30.24 10 CLR None
2018-12-15 16:53 36 32 31 85 40° 6 - 30.18 30.23 10 CLR None
2018-12-15 16:34 36 32 31 85 60° 6 - 30.18 - 9 SCT014 None
2018-12-15 15:53 37 33 30 85 70° 9 - 30.18 30.21 9 OVC013 None
2018-12-15 14:53 38 33 31 82 70° 10 - 30.16 30.19 9 OVC013 None
2018-12-15 13:53 38 33 31 82 70° 10 - 30.17 30.20 8 BKN012 None
2018-12-15 13:02 38 33 30 82 60° 12 - 30.17 - 8 SCT011 None
2018-12-15 12:53 38 33 30 82 60° 12 - 30.17 30.21 8 BKN011 6-hr Min Temp (1pm): 34.0°F
6-hr Max Temp (1pm): 37.9°F
2018-12-15 11:53 38 33 31 82 60° 10 - 30.19 30.22 7 BKN011 None
2018-12-15 10:53 37 33 30 85 60° 10 - 30.21 30.25 6 BR BKN011 None

Support USWX by starting your Amazon purchase here.